Location: La Comballaz
(46.3780°N, 7.0817°E)
Time: 02:09:35
(UTC+00:00)

ITUPSAT 1 - Pass Details

Date: 02 December 2022
Orbit: 698 x 711 km, 98.5° (Epoch: 05 February)

Event Time Altitude Azimuth Distance (km) Brightness Sun altitude
Rises 05:37:14 0° 108° (ESE) 3,102 ? -13.0°
Reaches altitude 10° 05:40:48 10° 80° (E) 2,191 ? -12.4°
Maximum altitude 05:42:45 12° 56° (NE) 2,030 ? -12.1°
Drops below altitude 10° 05:44:42 10° 32° (NNE) 2,199 ? -11.8°
Sets 05:48:17 0° 3° (N) 3,125 ? -11.2°
